Find STARLINK-38106

NORAD ID: 799501191 Int'l Des: 2026-160P Constellation: starlink operational

Current View

Loading 3D Globe...

About STARLINK-38106

STARLINK-38106 (NORAD 799501191) is a starlink constellation satellite launched Jul 9, 2026

About STARLINK-38106

Description loading...

Upcoming Passes

Passes for default location (London). Set your location on the main map for personalized predictions.

Altitude History

Loading altitude history...

Two-Line Element Set

1 99999C 2026160P 26195.37270832 .00497620 00000-0 639600-4 0 1951
2 99999 70.0022 28.6637 0010073 259.1924 225.6584 16.06623245 11
Epoch: Jul 14, 2026 • Age: 7 hours